Time,TemperatureF,DewpointF,PressureIn,WindDirection,WindDirectionDegrees,WindSpeedMPH,WindSpeedGustMPH,Humidity,HourlyPrecipIn,Conditions,Clouds,dailyrainin,SoftwareType,DateUTC
2014-01-26 00:01:00,58.3,54.5,30.06,SSE,158,1.3,2.5,87,0.00,,,0.00,WUHU216HW,2014-01-26 05:01:00,
2014-01-26 00:06:00,58.5,55.6,30.06,South,180,2.2,3.4,90,0.00,,,0.00,WUHU216HW,2014-01-26 05:06:00,
2014-01-26 00:11:00,58.3,55.1,30.06,SSW,203,0.4,3.4,89,0.00,,,0.00,WUHU216HW,2014-01-26 05:11:00,
2014-01-26 00:16:00,58.3,55.1,30.06,SSE,158,1.1,2.2,89,0.00,,,0.00,WUHU216HW,2014-01-26 05:16:00,
2014-01-26 00:21:00,58.3,54.8,30.06,SSW,203,0.9,1.1,88,0.00,,,0.00,WUHU216HW,2014-01-26 05:21:00,
2014-01-26 00:26:00,58.1,54.3,30.06,SSE,158,0.0,1.1,87,0.00,,,0.00,WUHU216HW,2014-01-26 05:26:00,
2014-01-26 00:31:00,58.0,54.1,30.06,SSE,158,0.0,1.1,87,0.00,,,0.00,WUHU216HW,2014-01-26 05:31:00,
2014-01-26 00:36:00,58.0,54.1,30.06,South,180,0.0,1.3,87,0.00,,,0.00,WUHU216HW,2014-01-26 05:36:00,
2014-01-26 00:41:00,57.8,53.9,30.06,SSW,203,2.5,2.5,87,0.00,,,0.00,WUHU216HW,2014-01-26 05:41:00,
2014-01-26 00:46:00,58.0,54.5,30.06,South,180,0.4,2.5,88,0.00,,,0.00,WUHU216HW,2014-01-26 05:46:00,
2014-01-26 00:51:00,57.8,53.9,30.05,SSW,203,1.1,2.5,87,0.00,,,0.00,WUHU216HW,2014-01-26 05:51:00,
2014-01-26 00:56:00,58.0,54.5,30.05,SSE,158,2.5,2.5,88,0.00,,,0.00,WUHU216HW,2014-01-26 05:56:00,
2014-01-26 01:01:00,58.0,54.5,30.05,South,180,2.0,2.5,88,0.00,,,0.00,WUHU216HW,2014-01-26 06:01:00,
2014-01-26 01:06:00,58.1,54.6,30.05,SSW,203,0.4,2.5,88,0.00,,,0.00,WUHU216HW,2014-01-26 06:06:00,
2014-01-26 01:11:00,58.3,55.4,30.05,SSE,158,0.2,2.2,90,0.00,,,0.00,WUHU216HW,2014-01-26 06:11:00,
2014-01-26 01:16:00,58.3,55.4,30.05,SSW,203,1.8,2.2,90,0.00,,,0.00,WUHU216HW,2014-01-26 06:16:00,
2014-01-26 01:21:00,58.5,55.6,30.05,South,180,0.7,2.2,90,0.00,,,0.00,WUHU216HW,2014-01-26 06:21:00,
2014-01-26 01:26:00,58.5,55.6,30.05,South,180,0.4,2.2,90,0.00,,,0.00,WUHU216HW,2014-01-26 06:26:00,
2014-01-26 01:31:00,58.5,55.6,30.05,SE,135,0.2,0.7,90,0.00,,,0.00,WUHU216HW,2014-01-26 06:31:00,
2014-01-26 01:36:00,58.5,55.6,30.05,South,180,0.2,0.4,90,0.00,,,0.00,WUHU216HW,2014-01-26 06:36:00,
2014-01-26 01:41:00,58.5,55.6,30.05,SSE,158,2.2,2.2,90,0.00,,,0.00,WUHU216HW,2014-01-26 06:41:00,
2014-01-26 01:46:00,58.7,55.8,30.04,SSE,158,2.9,2.9,90,0.00,,,0.00,WUHU216HW,2014-01-26 06:46:00,
2014-01-26 01:51:00,58.9,56.0,30.04,South,180,1.1,2.9,90,0.00,,,0.00,WUHU216HW,2014-01-26 06:51:00,
2014-01-26 01:56:00,59.0,56.7,30.04,SSE,158,0.0,2.9,92,0.00,,,0.00,WUHU216HW,2014-01-26 06:56:00,
2014-01-26 02:01:00,59.2,56.3,30.04,SE,135,0.2,1.1,90,0.00,,,0.00,WUHU216HW,2014-01-26 07:01:00,
2014-01-26 02:06:00,59.4,56.5,30.04,SSW,203,0.4,1.1,90,0.00,,,0.00,WUHU216HW,2014-01-26 07:06:00,
2014-01-26 02:11:00,59.4,56.5,30.04,South,180,1.8,1.8,90,0.00,,,0.00,WUHU216HW,2014-01-26 07:11:00,
2014-01-26 02:16:00,59.8,56.9,30.04,SSE,158,0.7,1.8,90,0.00,,,0.00,WUHU216HW,2014-01-26 07:16:00,
2014-01-26 02:21:00,59.9,57.1,30.03,South,180,3.6,3.6,90,0.00,,,0.00,WUHU216HW,2014-01-26 07:21:00,
2014-01-26 02:26:00,60.1,57.5,30.03,South,180,2.5,3.6,91,0.00,,,0.00,WUHU216HW,2014-01-26 07:26:00,
2014-01-26 02:31:00,60.3,57.7,30.04,SSE,158,0.2,3.6,91,0.00,,,0.00,WUHU216HW,2014-01-26 07:31:00,
2014-01-26 02:36:00,60.5,57.6,30.03,South,180,2.9,2.9,90,0.00,,,0.00,WUHU216HW,2014-01-26 07:36:00,
2014-01-26 02:41:00,60.8,58.9,30.04,SW,225,1.1,2.9,93,0.00,,,0.00,WUHU216HW,2014-01-26 07:41:00,
2014-01-26 02:46:00,60.8,58.2,30.03,SSW,203,0.4,2.9,91,0.00,,,0.00,WUHU216HW,2014-01-26 07:46:00,
2014-01-26 02:51:00,60.8,58.5,30.03,SW,225,0.4,1.1,92,0.00,,,0.00,WUHU216HW,2014-01-26 07:51:00,
2014-01-26 02:56:00,60.8,58.5,30.03,SW,225,0.0,0.4,92,0.00,,,0.00,WUHU216HW,2014-01-26 07:56:00,
2014-01-26 03:01:00,60.8,58.2,30.03,SE,135,0.4,0.4,91,0.00,,,0.00,WUHU216HW,2014-01-26 08:01:00,
2014-01-26 03:06:00,60.8,58.9,30.03,West,270,0.4,0.4,93,0.00,,,0.00,WUHU216HW,2014-01-26 08:06:00,
2014-01-26 03:11:00,60.8,58.5,30.03,NNW,338,0.2,0.4,92,0.00,,,0.00,WUHU216HW,2014-01-26 08:11:00,
2014-01-26 03:16:00,60.8,58.5,30.03,WSW,248,0.4,0.4,92,0.00,,,0.00,WUHU216HW,2014-01-26 08:16:00,
2014-01-26 03:21:00,60.8,58.5,30.03,SSW,203,0.4,0.4,92,0.00,,,0.00,WUHU216HW,2014-01-26 08:21:00,
2014-01-26 03:26:00,60.8,58.2,30.03,NW,315,0.0,0.4,91,0.00,,,0.00,WUHU216HW,2014-01-26 08:26:00,
2014-01-26 03:31:00,60.8,58.5,30.03,WNW,293,0.7,0.7,92,0.00,,,0.00,WUHU216HW,2014-01-26 08:31:00,
2014-01-26 03:36:00,60.8,58.9,30.03,West,270,1.8,1.8,93,0.00,,,0.00,WUHU216HW,2014-01-26 08:36:00,
2014-01-26 03:41:00,61.0,59.1,30.03,West,270,1.6,1.8,93,0.00,,,0.00,WUHU216HW,2014-01-26 08:41:00,
2014-01-26 03:46:00,60.8,58.9,30.03,West,270,2.5,2.5,93,0.00,,,0.00,WUHU216HW,2014-01-26 08:46:00,
2014-01-26 03:51:00,60.8,58.9,30.03,NW,315,1.1,2.5,93,0.00,,,0.00,WUHU216HW,2014-01-26 08:51:00,
2014-01-26 03:56:00,60.8,58.9,30.03,NNW,338,0.4,2.5,93,0.00,,,0.00,WUHU216HW,2014-01-26 08:56:00,
2014-01-26 04:01:00,61.0,59.1,30.04,NW,315,1.8,1.8,93,0.00,,,0.00,WUHU216HW,2014-01-26 09:01:00,
2014-01-26 04:06:00,60.8,58.5,30.04,NNW,338,1.8,1.8,92,0.00,,,0.00,WUHU216HW,2014-01-26 09:06:00,
2014-01-26 04:11:00,60.8,58.5,30.04,WNW,293,3.4,3.4,92,0.00,,,0.00,WUHU216HW,2014-01-26 09:11:00,
2014-01-26 04:16:00,60.8,58.5,30.04,WNW,293,3.4,3.4,92,0.00,,,0.00,WUHU216HW,2014-01-26 09:16:00,
2014-01-26 04:21:00,60.8,58.5,30.04,NNW,338,1.6,3.4,92,0.00,,,0.00,WUHU216HW,2014-01-26 09:21:00,
2014-01-26 04:26:00,60.8,58.2,30.04,NNW,338,2.7,3.4,91,0.00,,,0.00,WUHU216HW,2014-01-26 09:26:00,
2014-01-26 04:31:00,60.7,58.1,30.04,NNW,338,1.1,2.7,91,0.00,,,0.00,WUHU216HW,2014-01-26 09:31:00,
2014-01-26 04:36:00,60.1,57.2,30.04,NNE,23,0.4,2.7,90,0.00,,,0.00,WUHU216HW,2014-01-26 09:36:00,
2014-01-26 04:41:00,60.1,56.9,30.04,NNE,23,2.2,2.2,89,0.00,,,0.00,WUHU216HW,2014-01-26 09:41:00,
2014-01-26 04:46:00,59.9,56.1,30.04,NNE,23,0.4,2.2,87,0.00,,,0.00,WUHU216HW,2014-01-26 09:46:00,
2014-01-26 04:51:00,59.8,55.9,30.04,North,0,1.8,2.2,87,0.00,,,0.00,WUHU216HW,2014-01-26 09:51:00,
2014-01-26 04:56:00,59.8,55.9,30.04,NNE,23,0.7,1.8,87,0.00,,,0.00,WUHU216HW,2014-01-26 09:56:00,
2014-01-26 05:01:00,59.8,55.9,30.04,NNW,338,0.2,1.8,87,0.00,,,0.00,WUHU216HW,2014-01-26 10:01:00,
2014-01-26 05:06:00,59.8,55.9,30.05,NNW,338,0.9,0.9,87,0.00,,,0.00,WUHU216HW,2014-01-26 10:06:00,
2014-01-26 05:11:00,59.6,55.7,30.04,North,0,0.4,0.9,87,0.00,,,0.00,WUHU216HW,2014-01-26 10:11:00,
2014-01-26 05:16:00,59.8,55.9,30.05,NE,45,0.7,0.9,87,0.00,,,0.00,WUHU216HW,2014-01-26 10:16:00,
2014-01-26 05:21:00,59.6,55.7,30.05,NW,315,1.3,1.3,87,0.00,,,0.00,WUHU216HW,2014-01-26 10:21:00,
2014-01-26 05:26:00,59.6,55.5,30.05,NNW,338,1.3,2.9,86,0.00,,,0.00,WUHU216HW,2014-01-26 10:26:00,
2014-01-26 05:31:00,59.6,55.5,30.05,NNE,23,1.3,2.9,86,0.00,,,0.00,WUHU216HW,2014-01-26 10:31:00,
2014-01-26 05:36:00,59.6,55.7,30.05,North,0,0.4,1.3,87,0.00,,,0.00,WUHU216HW,2014-01-26 10:36:00,
2014-01-26 05:41:00,59.4,55.5,30.05,NNW,338,1.1,2.9,87,0.00,,,0.00,WUHU216HW,2014-01-26 10:41:00,
2014-01-26 05:46:00,59.4,55.5,30.05,NNE,23,1.1,2.9,87,0.00,,,0.00,WUHU216HW,2014-01-26 10:46:00,
2014-01-26 05:51:00,59.4,55.5,30.05,NE,45,1.1,1.1,87,0.00,,,0.00,WUHU216HW,2014-01-26 10:51:00,
2014-01-26 05:56:00,59.4,55.5,30.05,North,0,2.5,2.5,87,0.00,,,0.00,WUHU216HW,2014-01-26 10:56:00,
2014-01-26 06:01:00,59.2,55.1,30.05,NE,45,1.8,2.5,86,0.00,,,0.00,WUHU216HW,2014-01-26 11:01:00,
2014-01-26 06:06:00,59.2,55.1,30.05,NNE,23,1.8,2.5,86,0.00,,,0.00,WUHU216HW,2014-01-26 11:06:00,
2014-01-26 06:11:00,59.2,55.1,30.05,North,0,1.1,1.8,86,0.00,,,0.00,WUHU216HW,2014-01-26 11:11:00,
2014-01-26 06:16:00,59.0,54.9,30.06,North,0,2.5,2.5,86,0.00,,,0.00,WUHU216HW,2014-01-26 11:16:00,
2014-01-26 06:21:00,58.9,54.4,30.05,NNE,23,3.4,4.3,85,0.00,,,0.00,WUHU216HW,2014-01-26 11:21:00,
2014-01-26 06:26:00,58.9,54.4,30.05,North,0,2.0,4.3,85,0.00,,,0.00,WUHU216HW,2014-01-26 11:26:00,
2014-01-26 06:31:00,58.7,54.2,30.05,NNE,23,0.4,3.4,85,0.00,,,0.00,WUHU216HW,2014-01-26 11:31:00,
2014-01-26 06:36:00,58.7,54.2,30.06,NNE,23,0.4,2.0,85,0.00,,,0.00,WUHU216HW,2014-01-26 11:36:00,
2014-01-26 06:41:00,58.7,54.2,30.06,North,0,0.9,3.4,85,0.00,,,0.00,WUHU216HW,2014-01-26 11:41:00,
2014-01-26 06:46:00,58.7,54.2,30.06,North,0,0.4,3.4,85,0.00,,,0.00,WUHU216HW,2014-01-26 11:46:00,
2014-01-26 06:51:00,58.7,54.2,30.06,North,0,0.9,0.9,85,0.00,,,0.00,WUHU216HW,2014-01-26 11:51:00,
2014-01-26 06:56:00,58.5,54.0,30.06,NE,45,2.5,2.5,85,0.00,,,0.00,WUHU216HW,2014-01-26 11:56:00,
2014-01-26 07:01:00,58.3,53.8,30.06,North,0,2.2,2.5,85,0.00,,,0.00,WUHU216HW,2014-01-26 12:01:00,
2014-01-26 07:06:00,58.1,53.6,30.06,NE,45,1.6,2.5,85,0.00,,,0.00,WUHU216HW,2014-01-26 12:06:00,
2014-01-26 07:11:00,58.1,53.6,30.07,ENE,68,1.6,2.2,85,0.00,,,0.00,WUHU216HW,2014-01-26 12:11:00,
2014-01-26 07:16:00,58.0,53.5,30.07,NNE,23,1.8,1.8,85,0.00,,,0.00,WUHU216HW,2014-01-26 12:16:00,
2014-01-26 07:21:00,58.0,53.8,30.07,NE,45,1.6,1.8,86,0.00,,,0.00,WUHU216HW,2014-01-26 12:21:00,
2014-01-26 07:26:00,58.0,53.5,30.07,NNE,23,0.4,1.8,85,0.00,,,0.00,WUHU216HW,2014-01-26 12:26:00,
2014-01-26 07:31:00,58.0,53.5,30.07,NNE,23,1.8,2.0,85,0.00,,,0.00,WUHU216HW,2014-01-26 12:31:00,
2014-01-26 07:36:00,58.0,53.5,30.07,NE,45,0.9,2.0,85,0.00,,,0.00,WUHU216HW,2014-01-26 12:36:00,
2014-01-26 07:41:00,58.0,53.5,30.07,NE,45,2.7,3.1,85,0.00,,,0.00,WUHU216HW,2014-01-26 12:41:00,
2014-01-26 07:46:00,58.0,53.1,30.07,NNE,23,2.7,3.1,84,0.00,,,0.00,WUHU216HW,2014-01-26 12:46:00,
2014-01-26 07:51:00,58.0,53.5,30.08,NNE,23,1.8,2.9,85,0.00,,,0.00,WUHU216HW,2014-01-26 12:51:00,
2014-01-26 07:56:00,58.0,53.1,30.08,NNE,23,3.6,3.6,84,0.00,,,0.00,WUHU216HW,2014-01-26 12:56:00,
2014-01-26 08:01:00,58.0,53.1,30.08,NE,45,1.8,4.9,84,0.00,,,0.00,WUHU216HW,2014-01-26 13:01:00,
2014-01-26 08:06:00,58.0,53.1,30.08,NNE,23,2.7,4.9,84,0.00,,,0.00,WUHU216HW,2014-01-26 13:06:00,
2014-01-26 08:11:00,58.0,53.1,30.07,NNE,23,1.8,4.0,84,0.00,,,0.00,WUHU216HW,2014-01-26 13:11:00,
2014-01-26 08:16:00,58.0,53.1,30.07,NE,45,2.5,3.8,84,0.00,,,0.00,WUHU216HW,2014-01-26 13:16:00,
2014-01-26 08:21:00,58.1,53.3,30.08,NNE,23,3.8,3.8,84,0.00,,,0.00,WUHU216HW,2014-01-26 13:21:00,
2014-01-26 08:26:00,58.0,52.8,30.08,NE,45,4.7,4.7,83,0.00,,,0.00,WUHU216HW,2014-01-26 13:26:00,
2014-01-26 08:31:00,58.1,53.0,30.08,NE,45,3.8,4.7,83,0.00,,,0.00,WUHU216HW,2014-01-26 13:31:00,
2014-01-26 08:36:00,58.1,53.0,30.08,NE,45,5.4,5.4,83,0.00,,,0.00,WUHU216HW,2014-01-26 13:36:00,
2014-01-26 08:41:00,58.3,53.2,30.08,NNE,23,6.3,6.3,83,0.00,,,0.00,WUHU216HW,2014-01-26 13:41:00,
2014-01-26 08:46:00,58.5,53.4,30.08,NNE,23,4.9,6.3,83,0.00,,,0.00,WUHU216HW,2014-01-26 13:46:00,
2014-01-26 08:51:00,58.5,53.0,30.08,NNE,23,2.2,6.3,82,0.00,,,0.00,WUHU216HW,2014-01-26 13:51:00,
2014-01-26 08:56:00,58.5,53.0,30.08,NE,45,3.1,4.9,82,0.00,,,0.00,WUHU216HW,2014-01-26 13:56:00,
2014-01-26 09:01:00,58.5,52.8,30.08,ENE,68,3.6,3.6,81,0.00,,,0.00,WUHU216HW,2014-01-26 14:01:00,
2014-01-26 09:06:00,58.7,52.9,30.09,NE,45,2.0,3.6,81,0.00,,,0.00,WUHU216HW,2014-01-26 14:06:00,
2014-01-26 09:11:00,58.7,52.6,30.09,NE,45,3.6,3.6,80,0.00,,,0.00,WUHU216HW,2014-01-26 14:11:00,
2014-01-26 09:16:00,58.7,52.6,30.09,ENE,68,6.9,6.9,80,0.00,,,0.00,WUHU216HW,2014-01-26 14:16:00,
2014-01-26 09:21:00,59.0,52.9,30.09,NE,45,6.9,6.9,80,0.00,,,0.00,WUHU216HW,2014-01-26 14:21:00,
2014-01-26 09:26:00,58.9,52.7,30.09,ENE,68,3.6,6.9,80,0.00,,,0.00,WUHU216HW,2014-01-26 14:26:00,
2014-01-26 09:31:00,59.0,52.6,30.10,NE,45,3.6,6.9,79,0.00,,,0.00,WUHU216HW,2014-01-26 14:31:00,
2014-01-26 09:36:00,59.0,52.6,30.10,NE,45,4.5,4.5,79,0.00,,,0.00,WUHU216HW,2014-01-26 14:36:00,
2014-01-26 09:41:00,58.9,52.4,30.10,NE,45,2.5,4.5,79,0.00,,,0.00,WUHU216HW,2014-01-26 14:41:00,
2014-01-26 09:46:00,58.9,52.4,30.09,NE,45,3.6,4.5,79,0.00,,,0.00,WUHU216HW,2014-01-26 14:46:00,
2014-01-26 09:51:00,58.9,52.0,30.10,NE,45,6.0,6.0,78,0.00,,,0.00,WUHU216HW,2014-01-26 14:51:00,
2014-01-26 09:56:00,59.2,52.4,30.09,NE,45,4.5,6.0,78,0.00,,,0.00,WUHU216HW,2014-01-26 14:56:00,
2014-01-26 10:01:00,59.2,52.4,30.10,NNE,23,4.0,4.5,78,0.00,,,0.00,WUHU216HW,2014-01-26 15:01:00,
2014-01-26 10:06:00,59.6,52.7,30.10,NE,45,4.3,5.1,78,0.00,,,0.00,WUHU216HW,2014-01-26 15:06:00,
2014-01-26 10:11:00,59.6,52.4,30.10,ENE,68,5.1,5.1,77,0.00,,,0.00,WUHU216HW,2014-01-26 15:11:00,
2014-01-26 10:16:00,59.8,52.6,30.10,NNE,23,1.8,5.1,77,0.00,,,0.00,WUHU216HW,2014-01-26 15:16:00,
2014-01-26 10:21:00,59.8,52.6,30.10,NE,45,3.8,5.1,77,0.00,,,0.00,WUHU216HW,2014-01-26 15:21:00,
2014-01-26 10:26:00,59.6,52.4,30.10,NE,45,4.0,4.0,77,0.00,,,0.00,WUHU216HW,2014-01-26 15:26:00,
2014-01-26 10:31:00,59.6,52.4,30.10,NE,45,4.7,4.7,77,0.00,,,0.00,WUHU216HW,2014-01-26 15:31:00,
2014-01-26 10:36:00,59.4,52.2,30.10,North,0,2.2,4.7,77,0.00,,,0.00,WUHU216HW,2014-01-26 15:36:00,
2014-01-26 10:41:00,59.4,52.2,30.10,NE,45,3.4,4.7,77,0.00,,,0.00,WUHU216HW,2014-01-26 15:41:00,
2014-01-26 10:46:00,59.4,52.2,30.10,NE,45,4.3,4.3,77,0.00,,,0.00,WUHU216HW,2014-01-26 15:46:00,
2014-01-26 10:51:00,59.9,52.4,30.10,ENE,68,2.0,4.3,76,0.00,,,0.00,WUHU216HW,2014-01-26 15:51:00,
2014-01-26 10:56:00,60.5,52.9,30.10,ENE,68,3.4,4.3,76,0.00,,,0.00,WUHU216HW,2014-01-26 15:56:00,
2014-01-26 11:01:00,60.8,52.9,30.10,ENE,68,3.4,3.4,75,0.00,,,0.00,WUHU216HW,2014-01-26 16:01:00,
2014-01-26 11:06:00,61.6,52.8,30.10,ENE,68,3.4,3.4,73,0.00,,,0.00,WUHU216HW,2014-01-26 16:06:00,
2014-01-26 11:11:00,61.6,52.5,30.10,ENE,68,3.1,3.4,72,0.00,,,0.00,WUHU216HW,2014-01-26 16:11:00,
2014-01-26 11:15:00,61.4,51.9,30.10,East,90,2.7,3.4,71,0.00,,,0.00,WUHU216HW,2014-01-26 16:15:00,
2014-01-26 11:21:00,61.6,52.5,30.10,ENE,68,1.8,3.4,72,0.00,,,0.00,WUHU216HW,2014-01-26 16:21:00,
2014-01-26 11:26:00,61.6,52.5,30.10,ENE,68,1.8,2.7,72,0.00,,,0.00,WUHU216HW,2014-01-26 16:26:00,
2014-01-26 11:31:00,61.7,52.7,30.10,ENE,68,1.8,1.8,72,0.00,,,0.00,WUHU216HW,2014-01-26 16:31:00,
2014-01-26 11:35:00,61.9,52.5,30.10,ENE,68,2.5,2.5,71,0.00,,,0.00,WUHU216HW,2014-01-26 16:35:00,
2014-01-26 11:40:00,62.1,52.7,30.10,ENE,68,2.5,2.5,71,0.00,,,0.00,WUHU216HW,2014-01-26 16:40:00,
2014-01-26 11:45:00,62.3,52.7,30.10,NNE,23,2.9,3.4,71,0.00,,,0.00,WUHU216HW,2014-01-26 16:45:00,
2014-01-26 11:50:00,62.6,52.7,30.09,ENE,68,1.1,3.4,70,0.00,,,0.00,WUHU216HW,2014-01-26 16:50:00,
2014-01-26 11:56:00,62.8,52.5,30.09,ESE,113,2.5,2.9,69,0.00,,,0.00,WUHU216HW,2014-01-26 16:56:00,
2014-01-26 12:01:00,62.6,52.3,30.09,ESE,113,1.8,2.5,69,0.00,,,0.00,WUHU216HW,2014-01-26 17:01:00,
2014-01-26 12:06:00,62.8,52.5,30.09,ESE,113,2.2,2.7,69,0.00,,,0.00,WUHU216HW,2014-01-26 17:06:00,
2014-01-26 12:11:00,63.4,53.0,30.08,NE,45,2.0,2.7,69,0.00,,,0.00,WUHU216HW,2014-01-26 17:11:00,
2014-01-26 12:16:00,63.5,52.8,30.08,East,90,2.2,2.5,68,0.00,,,0.00,WUHU216HW,2014-01-26 17:16:00,
2014-01-26 12:21:00,63.7,53.0,30.08,East,90,1.1,2.2,68,0.00,,,0.00,WUHU216HW,2014-01-26 17:21:00,
2014-01-26 12:25:00,63.9,52.8,30.08,East,90,1.8,2.5,67,0.00,,,0.00,WUHU216HW,2014-01-26 17:25:00,
2014-01-26 12:31:00,63.9,53.2,30.08,East,90,1.8,2.5,68,0.00,,,0.00,WUHU216HW,2014-01-26 17:31:00,
2014-01-26 12:36:00,64.1,52.9,30.07,East,90,2.5,2.5,67,0.00,,,0.00,WUHU216HW,2014-01-26 17:36:00,
2014-01-26 12:41:00,64.3,53.5,30.07,ENE,68,2.5,2.5,68,0.00,,,0.00,WUHU216HW,2014-01-26 17:41:00,
2014-01-26 12:46:00,64.8,53.6,30.07,ESE,113,1.8,2.5,67,0.00,,,0.00,WUHU216HW,2014-01-26 17:46:00,
2014-01-26 12:51:00,65.5,53.4,30.06,SE,135,1.8,2.5,65,0.00,,,0.00,WUHU216HW,2014-01-26 17:51:00,
2014-01-26 12:56:00,65.9,53.7,30.06,East,90,2.9,2.9,65,0.00,,,0.00,WUHU216HW,2014-01-26 17:56:00,
2014-01-26 13:01:00,65.9,53.7,30.06,East,90,1.6,2.9,65,0.00,,,0.00,WUHU216HW,2014-01-26 18:01:00,
2014-01-26 13:05:00,66.4,53.8,30.06,East,90,2.2,2.9,64,0.00,,,0.00,WUHU216HW,2014-01-26 18:05:00,
2014-01-26 13:11:00,66.4,53.8,30.05,SE,135,0.0,2.2,64,0.00,,,0.00,WUHU216HW,2014-01-26 18:11:00,
2014-01-26 13:20:00,66.6,54.0,30.05,ESE,113,2.5,2.7,64,0.00,,,0.00,WUHU216HW,2014-01-26 18:20:00,
2014-01-26 13:25:00,66.4,54.3,30.05,ESE,113,2.2,2.5,65,0.00,,,0.00,WUHU216HW,2014-01-26 18:25:00,
2014-01-26 13:30:00,66.4,54.3,30.05,ESE,113,2.2,2.2,65,0.00,,,0.00,WUHU216HW,2014-01-26 18:30:00,
2014-01-26 13:37:00,67.3,55.1,30.03,SSE,158,1.1,1.1,65,0.00,,,0.00,WUHU216HW,2014-01-26 18:37:00,
2014-01-26 13:42:00,67.1,54.9,30.03,SE,135,1.1,1.1,65,0.00,,,0.00,WUHU216HW,2014-01-26 18:42:00,
2014-01-26 13:47:00,67.1,54.9,30.03,SSW,203,0.7,1.1,65,0.00,,,0.00,WUHU216HW,2014-01-26 18:47:00,
2014-01-26 13:52:00,67.3,55.1,30.03,East,90,3.4,3.4,65,0.00,,,0.00,WUHU216HW,2014-01-26 18:52:00,
2014-01-26 13:57:00,67.3,55.5,30.03,SE,135,1.6,3.4,66,0.00,,,0.00,WUHU216HW,2014-01-26 18:57:00,
2014-01-26 14:02:00,67.7,55.9,30.02,SE,135,1.8,1.8,66,0.00,,,0.00,WUHU216HW,2014-01-26 19:02:00,
2014-01-26 14:07:00,67.9,56.5,30.02,South,180,2.5,2.5,67,0.00,,,0.00,WUHU216HW,2014-01-26 19:07:00,
2014-01-26 14:12:00,68.4,57.0,30.02,South,180,4.0,4.0,67,0.00,,,0.00,WUHU216HW,2014-01-26 19:12:00,
2014-01-26 14:17:00,68.9,57.1,30.02,SE,135,2.0,4.0,66,0.00,,,0.00,WUHU216HW,2014-01-26 19:17:00,
2014-01-26 14:22:00,69.5,57.2,30.02,SSE,158,2.9,4.0,65,0.00,,,0.00,WUHU216HW,2014-01-26 19:22:00,
2014-01-26 14:27:00,69.8,57.5,30.02,SSE,158,1.8,2.9,65,0.00,,,0.00,WUHU216HW,2014-01-26 19:27:00,
2014-01-26 14:32:00,70.4,57.6,30.02,West,270,2.5,3.8,64,0.00,,,0.00,WUHU216HW,2014-01-26 19:32:00,
2014-01-26 14:37:00,70.2,57.4,30.02,SSW,203,3.4,3.8,64,0.00,,,0.00,WUHU216HW,2014-01-26 19:37:00,
2014-01-26 14:42:00,70.2,57.1,30.02,SSE,158,2.5,3.4,63,0.00,,,0.00,WUHU216HW,2014-01-26 19:42:00,
2014-01-26 14:47:00,68.6,56.4,30.03,SE,135,2.0,3.4,65,0.00,,,0.00,WUHU216HW,2014-01-26 19:47:00,
2014-01-26 14:52:00,68.0,56.7,30.02,South,180,2.7,2.7,67,0.00,,,0.00,WUHU216HW,2014-01-26 19:52:00,
2014-01-26 14:57:00,67.9,56.5,30.02,SSE,158,2.2,2.7,67,0.00,,,0.00,WUHU216HW,2014-01-26 19:57:00,
2014-01-26 15:02:00,67.9,56.9,30.02,SSW,203,1.8,2.7,68,0.00,,,0.00,WUHU216HW,2014-01-26 20:02:00,
2014-01-26 15:07:00,67.5,56.6,30.02,SSE,158,0.9,2.2,68,0.00,,,0.00,WUHU216HW,2014-01-26 20:07:00,
2014-01-26 15:12:00,67.3,57.2,30.02,ESE,113,3.1,3.1,70,0.00,,,0.00,WUHU216HW,2014-01-26 20:12:00,
2014-01-26 15:17:00,66.8,56.7,30.02,SE,135,1.8,3.1,70,0.00,,,0.00,WUHU216HW,2014-01-26 20:17:00,
2014-01-26 15:22:00,66.6,56.9,30.02,SSE,158,1.8,3.1,71,0.00,,,0.00,WUHU216HW,2014-01-26 20:22:00,
2014-01-26 15:27:00,66.2,56.5,30.02,SE,135,0.4,1.8,71,0.00,,,0.00,WUHU216HW,2014-01-26 20:27:00,
2014-01-26 15:32:00,66.2,56.9,30.03,SSE,158,0.9,1.8,72,0.00,,,0.00,WUHU216HW,2014-01-26 20:32:00,
2014-01-26 15:37:00,65.9,57.3,30.02,SE,135,0.4,1.1,74,0.00,,,0.00,WUHU216HW,2014-01-26 20:37:00,
2014-01-26 15:42:00,65.5,57.3,30.02,SE,135,0.9,1.1,75,0.00,,,0.00,WUHU216HW,2014-01-26 20:42:00,
2014-01-26 15:47:00,65.3,58.3,30.02,SSE,158,2.0,2.0,78,0.00,,,0.00,WUHU216HW,2014-01-26 20:47:00,
2014-01-26 15:52:00,65.2,59.2,30.02,SE,135,0.9,2.0,81,0.00,,,0.00,WUHU216HW,2014-01-26 20:52:00,
2014-01-26 15:57:00,64.8,59.2,30.02,SE,135,1.1,1.1,82,0.00,,,0.00,WUHU216HW,2014-01-26 20:57:00,
2014-01-26 16:02:00,64.4,58.9,30.01,SE,135,1.1,1.1,82,0.00,,,0.00,WUHU216HW,2014-01-26 21:02:00,
2014-01-26 16:07:00,64.1,59.5,30.01,ESE,113,1.1,1.1,85,0.00,,,0.00,WUHU216HW,2014-01-26 21:07:00,
2014-01-26 16:12:00,63.9,59.7,30.01,East,90,0.9,1.1,86,0.00,,,0.00,WUHU216HW,2014-01-26 21:12:00,
2014-01-26 16:17:00,63.9,59.7,30.01,ESE,113,0.9,1.1,86,0.00,,,0.00,WUHU216HW,2014-01-26 21:17:00,
2014-01-26 16:22:00,63.5,59.7,30.01,ESE,113,1.1,1.1,87,0.00,,,0.00,WUHU216HW,2014-01-26 21:22:00,
2014-01-26 16:27:00,63.5,59.7,30.01,East,90,1.6,1.8,87,0.00,,,0.00,WUHU216HW,2014-01-26 21:27:00,
2014-01-26 16:32:00,63.7,60.1,30.01,ESE,113,2.0,2.0,88,0.00,,,0.00,WUHU216HW,2014-01-26 21:32:00,
2014-01-26 16:37:00,63.5,59.9,30.01,SE,135,0.7,2.0,88,0.00,,,0.00,WUHU216HW,2014-01-26 21:37:00,
2014-01-26 16:42:00,63.7,59.9,30.01,ESE,113,0.0,2.0,87,0.00,,,0.00,WUHU216HW,2014-01-26 21:42:00,
2014-01-26 16:47:00,63.5,59.3,30.01,SE,135,0.4,0.7,86,0.00,,,0.00,WUHU216HW,2014-01-26 21:47:00,
2014-01-26 16:52:00,63.7,59.1,30.01,East,90,0.0,0.4,85,0.00,,,0.00,WUHU216HW,2014-01-26 21:52:00,
2014-01-26 16:57:00,63.5,59.0,30.02,ENE,68,0.4,0.4,85,0.00,,,0.00,WUHU216HW,2014-01-26 21:57:00,
2014-01-26 17:02:00,63.7,59.9,30.01,ENE,68,0.7,0.7,87,0.00,,,0.00,WUHU216HW,2014-01-26 22:02:00,
2014-01-26 17:07:00,63.4,59.5,30.01,SE,135,0.2,0.7,87,0.00,,,0.00,WUHU216HW,2014-01-26 22:07:00,
2014-01-26 17:12:00,63.4,59.8,30.01,SE,135,0.4,0.7,88,0.00,,,0.00,WUHU216HW,2014-01-26 22:12:00,
2014-01-26 17:17:00,63.4,59.5,30.01,ESE,113,0.2,0.7,87,0.00,,,0.00,WUHU216HW,2014-01-26 22:17:00,
2014-01-26 17:22:00,63.4,59.8,30.01,ESE,113,0.4,0.4,88,0.00,,,0.00,WUHU216HW,2014-01-26 22:22:00,
2014-01-26 17:27:00,63.4,60.1,30.01,ENE,68,0.0,0.4,89,0.00,,,0.00,WUHU216HW,2014-01-26 22:27:00,
2014-01-26 17:32:00,63.9,60.3,30.01,East,90,0.0,1.1,88,0.00,,,0.00,WUHU216HW,2014-01-26 22:32:00,
2014-01-26 17:37:00,64.1,60.2,30.01,ENE,68,0.7,1.1,87,0.00,,,0.00,WUHU216HW,2014-01-26 22:37:00,
2014-01-26 17:42:00,64.4,60.6,30.01,SE,135,1.6,1.6,87,0.00,,,0.00,WUHU216HW,2014-01-26 22:42:00,
2014-01-26 17:47:00,64.4,60.6,30.01,ESE,113,0.4,1.6,87,0.00,,,0.00,WUHU216HW,2014-01-26 22:47:00,
2014-01-26 17:52:00,64.4,60.2,30.01,SE,135,1.1,1.6,86,0.00,,,0.00,WUHU216HW,2014-01-26 22:52:00,
2014-01-26 17:57:00,64.6,60.4,30.01,ESE,113,0.4,1.1,86,0.00,,,0.00,WUHU216HW,2014-01-26 22:57:00,
2014-01-26 18:02:00,64.3,60.0,30.01,East,90,0.4,1.1,86,0.00,,,0.00,WUHU216HW,2014-01-26 23:02:00,
2014-01-26 18:07:00,64.1,59.5,30.02,NNE,23,0.0,0.4,85,0.00,,,0.00,WUHU216HW,2014-01-26 23:07:00,
2014-01-26 18:12:00,63.9,59.7,30.02,NNE,23,0.0,0.4,86,0.00,,,0.00,WUHU216HW,2014-01-26 23:12:00,
2014-01-26 18:17:00,63.5,59.0,30.01,NNE,23,0.0,0.0,85,0.00,,,0.00,WUHU216HW,2014-01-26 23:17:00,
2014-01-26 18:22:00,63.4,59.5,30.01,NNE,23,0.0,0.0,87,0.02,,,0.02,WUHU216HW,2014-01-26 23:22:00,
2014-01-26 18:27:00,63.4,59.5,30.01,NNE,23,0.0,0.0,87,0.03,,,0.04,WUHU216HW,2014-01-26 23:27:00,
2014-01-26 18:32:00,63.4,59.5,30.01,SE,135,0.7,0.7,87,0.03,,,0.04,WUHU216HW,2014-01-26 23:32:00,
2014-01-26 18:37:00,63.4,59.8,30.01,East,90,0.4,0.7,88,0.03,,,0.04,WUHU216HW,2014-01-26 23:37:00,
2014-01-26 18:42:00,63.4,59.5,30.02,East,90,0.4,0.7,87,0.03,,,0.04,WUHU216HW,2014-01-26 23:42:00,
2014-01-26 18:47:00,63.4,59.5,30.01,East,90,0.0,0.4,87,0.03,,,0.04,WUHU216HW,2014-01-26 23:47:00,
2014-01-26 18:52:00,63.2,59.9,30.01,ENE,68,0.2,0.4,89,0.03,,,0.04,WUHU216HW,2014-01-26 23:52:00,
2014-01-26 18:57:00,63.2,59.9,30.02,ENE,68,0.0,0.2,89,0.03,,,0.04,WUHU216HW,2014-01-26 23:57:00,
2014-01-26 19:02:00,63.2,59.6,30.02,ENE,68,0.0,0.2,88,0.03,,,0.04,WUHU216HW,2014-01-27 00:02:00,
2014-01-26 19:07:00,63.2,59.6,30.02,ENE,68,0.0,0.0,88,0.03,,,0.04,WUHU216HW,2014-01-27 00:07:00,
2014-01-26 19:12:00,63.0,59.8,30.02,ENE,68,0.0,0.0,89,0.03,,,0.04,WUHU216HW,2014-01-27 00:12:00,
2014-01-26 19:17:00,63.0,59.8,30.01,ENE,68,0.4,0.4,89,0.03,,,0.04,WUHU216HW,2014-01-27 00:17:00,
2014-01-26 19:22:00,63.0,59.8,30.02,NE,45,0.0,0.4,89,0.02,,,0.04,WUHU216HW,2014-01-27 00:22:00,
2014-01-26 19:27:00,63.0,59.8,30.02,ESE,113,0.7,0.7,89,0.01,,,0.04,WUHU216HW,2014-01-27 00:27:00,
2014-01-26 19:32:00,63.0,59.8,30.01,ESE,113,0.0,0.7,89,0.01,,,0.04,WUHU216HW,2014-01-27 00:32:00,
2014-01-26 19:37:00,63.0,59.8,30.01,ESE,113,0.4,0.7,89,0.01,,,0.04,WUHU216HW,2014-01-27 00:37:00,
2014-01-26 19:42:00,63.0,59.8,30.01,ESE,113,0.0,0.4,89,0.01,,,0.04,WUHU216HW,2014-01-27 00:42:00,
2014-01-26 19:47:00,63.0,59.8,30.01,ESE,113,0.0,0.4,89,0.01,,,0.04,WUHU216HW,2014-01-27 00:47:00,
2014-01-26 19:52:00,63.0,59.8,30.01,ESE,113,0.0,0.0,89,0.01,,,0.04,WUHU216HW,2014-01-27 00:52:00,
2014-01-26 19:57:00,63.0,59.8,30.02,ESE,113,0.0,0.0,89,0.01,,,0.04,WUHU216HW,2014-01-27 00:57:00,
2014-01-26 20:02:00,63.0,59.8,30.02,ESE,113,0.0,0.0,89,0.01,,,0.04,WUHU216HW,2014-01-27 01:02:00,
2014-01-26 20:07:00,63.0,59.8,30.02,ESE,113,0.2,0.2,89,0.01,,,0.04,WUHU216HW,2014-01-27 01:07:00,
2014-01-26 20:12:00,63.0,59.8,30.02,SE,135,1.1,1.1,89,0.01,,,0.04,WUHU216HW,2014-01-27 01:12:00,
2014-01-26 20:17:00,63.0,59.8,30.02,SE,135,0.0,1.1,89,0.00,,,0.04,WUHU216HW,2014-01-27 01:17:00,
2014-01-26 20:22:00,63.0,59.8,30.03,SSW,203,0.2,1.1,89,0.02,,,0.04,WUHU216HW,2014-01-27 01:22:00,
2014-01-26 20:27:00,63.0,60.1,30.02,SE,135,0.4,0.4,90,0.06,,,0.11,WUHU216HW,2014-01-27 01:27:00,
2014-01-26 20:32:00,63.0,59.8,30.03,SE,135,0.2,0.4,89,0.06,,,0.11,WUHU216HW,2014-01-27 01:32:00,
2014-01-26 20:37:00,63.0,60.1,30.02,SE,135,0.0,0.4,90,0.06,,,0.11,WUHU216HW,2014-01-27 01:37:00,
2014-01-26 20:42:00,63.0,60.1,30.02,SE,135,0.0,0.4,90,0.06,,,0.11,WUHU216HW,2014-01-27 01:42:00,
2014-01-26 20:47:00,62.8,59.9,30.03,ESE,113,0.0,0.0,90,0.06,,,0.11,WUHU216HW,2014-01-27 01:47:00,
2014-01-26 20:52:00,62.8,59.9,30.02,East,90,0.7,0.7,90,0.06,,,0.11,WUHU216HW,2014-01-27 01:52:00,
2014-01-26 20:57:00,62.8,60.2,30.02,ENE,68,0.0,0.7,91,0.06,,,0.11,WUHU216HW,2014-01-27 01:57:00,
2014-01-26 21:02:00,62.8,60.2,30.03,ENE,68,0.0,0.0,91,0.06,,,0.11,WUHU216HW,2014-01-27 02:02:00,
2014-01-26 21:07:00,62.8,59.9,30.03,ENE,68,0.0,0.0,90,0.06,,,0.11,WUHU216HW,2014-01-27 02:07:00,
2014-01-26 21:12:00,62.6,59.8,30.03,ENE,68,0.0,0.0,90,0.06,,,0.11,WUHU216HW,2014-01-27 02:12:00,
2014-01-26 21:17:00,62.6,59.8,30.02,NNE,23,1.6,1.6,90,0.06,,,0.11,WUHU216HW,2014-01-27 02:17:00,
2014-01-26 21:22:00,62.6,60.0,30.02,NNE,23,1.1,1.6,91,0.04,,,0.11,WUHU216HW,2014-01-27 02:22:00,
2014-01-26 21:27:00,62.6,60.0,30.02,NNE,23,0.0,1.6,91,0.00,,,0.11,WUHU216HW,2014-01-27 02:27:00,
2014-01-26 21:32:00,62.6,60.0,30.02,NNE,23,0.0,0.9,91,0.00,,,0.11,WUHU216HW,2014-01-27 02:32:00,
2014-01-26 21:37:00,62.6,60.0,30.03,ESE,113,0.7,0.7,91,0.00,,,0.11,WUHU216HW,2014-01-27 02:37:00,
2014-01-26 21:42:00,62.6,59.8,30.03,SSE,158,0.0,0.7,90,0.00,,,0.11,WUHU216HW,2014-01-27 02:42:00,
2014-01-26 21:47:00,62.6,60.0,30.03,SSW,203,0.7,0.7,91,0.00,,,0.11,WUHU216HW,2014-01-27 02:47:00,
2014-01-26 21:52:00,62.6,60.0,30.03,SSE,158,1.1,1.1,91,0.00,,,0.11,WUHU216HW,2014-01-27 02:52:00,
2014-01-26 21:57:00,62.6,60.0,30.03,SE,135,0.0,1.1,91,0.00,,,0.11,WUHU216HW,2014-01-27 02:57:00,
2014-01-26 22:02:00,62.6,60.0,30.03,SSE,158,0.0,1.1,91,0.00,,,0.11,WUHU216HW,2014-01-27 03:02:00,
2014-01-26 22:07:00,62.6,60.0,30.03,SSE,158,0.4,0.4,91,0.00,,,0.11,WUHU216HW,2014-01-27 03:07:00,
2014-01-26 22:12:00,62.6,60.0,30.03,SE,135,0.4,0.4,91,0.00,,,0.11,WUHU216HW,2014-01-27 03:12:00,
2014-01-26 22:17:00,62.6,60.0,30.03,SE,135,0.0,0.4,91,0.00,,,0.11,WUHU216HW,2014-01-27 03:17:00,
2014-01-26 22:22:00,62.6,60.0,30.03,SE,135,0.4,0.9,91,0.00,,,0.11,WUHU216HW,2014-01-27 03:22:00,
2014-01-26 22:27:00,62.6,60.0,30.03,SE,135,0.0,0.9,91,0.00,,,0.11,WUHU216HW,2014-01-27 03:27:00,
2014-01-26 22:32:00,62.8,60.2,30.03,SE,135,0.2,0.4,91,0.00,,,0.11,WUHU216HW,2014-01-27 03:32:00,
2014-01-26 22:37:00,62.6,60.0,30.03,SE,135,0.0,0.2,91,0.00,,,0.11,WUHU216HW,2014-01-27 03:37:00,
2014-01-26 22:42:00,62.6,60.0,30.03,SE,135,0.0,0.2,91,0.00,,,0.11,WUHU216HW,2014-01-27 03:42:00,
2014-01-26 22:47:00,62.6,60.0,30.03,SSE,158,0.0,0.0,91,0.00,,,0.11,WUHU216HW,2014-01-27 03:47:00,
2014-01-26 22:52:00,62.6,60.0,30.03,SE,135,0.4,0.4,91,0.00,,,0.11,WUHU216HW,2014-01-27 03:52:00,
2014-01-26 22:57:00,62.8,60.2,30.03,SSE,158,0.0,0.4,91,0.00,,,0.11,WUHU216HW,2014-01-27 03:57:00,
2014-01-26 23:02:00,62.8,60.2,30.03,SE,135,0.0,0.4,91,0.00,,,0.11,WUHU216HW,2014-01-27 04:02:00,
2014-01-26 23:07:00,62.8,60.5,30.03,South,180,1.8,1.8,92,0.00,,,0.11,WUHU216HW,2014-01-27 04:07:00,
2014-01-26 23:12:00,62.8,60.5,30.03,SSE,158,0.0,1.8,92,0.00,,,0.11,WUHU216HW,2014-01-27 04:12:00,
2014-01-26 23:17:00,62.6,60.3,30.02,South,180,0.4,1.8,92,0.00,,,0.11,WUHU216HW,2014-01-27 04:17:00,
2014-01-26 23:22:00,62.8,60.5,30.02,South,180,2.2,2.2,92,0.00,,,0.11,WUHU216HW,2014-01-27 04:22:00,
2014-01-26 23:27:00,62.8,60.5,30.02,SSE,158,0.0,2.2,92,0.00,,,0.11,WUHU216HW,2014-01-27 04:27:00,
2014-01-26 23:32:00,62.8,60.5,30.02,SSE,158,0.4,2.2,92,0.00,,,0.11,WUHU216HW,2014-01-27 04:32:00,
2014-01-26 23:37:00,62.6,60.3,30.02,South,180,0.7,0.7,92,0.00,,,0.11,WUHU216HW,2014-01-27 04:37:00,
2014-01-26 23:42:00,62.6,60.3,30.01,SE,135,0.4,0.7,92,0.00,,,0.11,WUHU216HW,2014-01-27 04:42:00,
2014-01-26 23:47:00,62.6,60.3,30.01,ESE,113,0.0,0.7,92,0.00,,,0.11,WUHU216HW,2014-01-27 04:47:00,
2014-01-26 23:52:00,62.8,60.5,30.01,SE,135,0.9,1.1,92,0.00,,,0.11,WUHU216HW,2014-01-27 04:52:00,
2014-01-26 23:57:00,62.8,60.5,30.00,SE,135,1.6,1.6,92,0.00,,,0.11,WUHU216HW,2014-01-27 04:57:00,